User: anonymous   Login
Location: Newark
(39.6889°N, 28.1522°E)
Time: 10:31:02
(UTC+00:00)
Language:

NOAA 15 - Orbit

View from above orbital plane
View from above orbital plane
View from above satellite
View from above satellite

Ground track
Ground track

The orbit data is extracted from the following two-line orbital elements,

1 25338U 98030A   19346.80458966 +.00000023 +00000-0 +28332-4 0  9997
2 25338 098.7343 007.6446 0011452 088.8824 271.3667 14.25943115122232
Epoch (UTC): 12 December 2019 19:18:36
Eccentricity: 0.0011452
inclination: 98.7343°
perigee height: 797 km
apogee height: 813 km
right ascension of ascending node: 7.6446°
argument of perigee: 88.8824°
revolutions per day: 14.25943115
mean anomaly at epoch: 271.3667°
orbit number at epoch: 12223

The dashed part of the orbit path shows where the satellite is in the earth's shadow,  

DLR